Weather History for KCEF - October, 2013

Change the Weather History Date:

Sunday, October 20, 2013

  Actual Average Record
Temperature  
Mean Temperature 50 °F -  
Max Temperature 62 °F 57 °F 74 °F (2012)
Min Temperature 37 °F 36 °F 25 °F (2008)
Degree Days  
Heating Degree Days 15    
Moisture  
Dew Point 44 °F    
Average Humidity 87    
Maximum Humidity 100    
Minimum Humidity 32    
Precipitation  
Precipitation 0.02 in - - ()
Sea Level Pressure  
Sea Level Pressure 29.78 in    
Wind  
Wind Speed 5 mph (SW)    
Max Wind Speed 20 mph    
Max Gust Speed 25 mph    
Visibility 5 miles    
Events Fog    
Averages and records for this station are not official NWS values.
T = Trace of Precipitation, MM = Missing Value Source: NWS Daily Summary

Daily Weather History Graph

Daily Weather History Graph

Search for Another Location

Airport or City:

Trip Planner

Search our weather history database for the weather conditions in past years. The results will help you decide how hot, cold, wet, or windy it might be!

Date:

Astronomy

Oct. 20, 2013 Rise Set
Actual Time 7:08 AM EDT 6:00 PM EDT
Civil Twilight 6:40 AM EDT 6:28 PM EDT
Nautical Twilight 6:07 AM EDT 7:01 PM EDT
Astronomical Twilight 5:35 AM EDT 7:33 PM EDT
Moon 7:04 PM EDT (10/20) 8:45 AM EDT (10/20)
Length of Visible Light 11h 48m
Length of Day
10h 51m
Full, 97% of the Moon is Illuminated
Oct 20
Full
Oct 26
Last Quarter
Nov 3
New
Nov 10
First Quarter
Nov 17
Full

Hourly Weather History & Observations

Time (EDT) Temp. Windchill Dew Point Humidity Pressure Visibility Wind Dir Wind Speed Gust Speed Precip Events Conditions
12:40 AM 51.8 °F - 51.8 °F 100% 29.72 in 10.0 mi SSE 3.5 mph - N/A   Overcast
12:58 AM 52.9 °F - 52.3 °F 98% 29.73 in 10.0 mi SSE 4.6 mph - 0.02 in   Overcast
1:41 AM 51.8 °F - 51.8 °F 100% 29.72 in 10.0 mi SW 2.3 mph - N/A   Overcast
1:58 AM 53.1 °F - 52.5 °F 98% 29.74 in 10.0 mi SW 3.5 mph - N/A   Overcast
2:02 AM 53.6 °F - 51.8 °F 94% 29.72 in 10.0 mi SW 2.3 mph - N/A   Overcast
2:24 AM 51.8 °F - 51.8 °F 100% 29.72 in 9.0 mi SE 2.3 mph - N/A   Scattered Clouds
2:53 AM 50.0 °F - 50.0 °F 100% 29.71 in 2.0 mi South 4.6 mph - N/A   Partly Cloudy
2:54 AM 50.0 °F - 50.0 °F 100% 29.71 in 1.5 mi South 4.6 mph - N/A   Partly Cloudy
2:55 AM 50.0 °F - 48.2 °F 94% 29.71 in 1.0 mi South 4.6 mph - N/A   Partly Cloudy
2:56 AM 48.2 °F - 48.2 °F 100% 29.71 in 1.0 mi South 5.8 mph - N/A   Partly Cloudy
2:57 AM 48.2 °F - 48.2 °F 100% 29.71 in 0.8 mi South 5.8 mph - N/A   Partly Cloudy
2:58 AM 48.2 °F - 48.2 °F 100% 29.73 in 0.8 mi South 5.8 mph - N/A   Partly Cloudy
2:59 AM 48.2 °F - 48.2 °F 100% 29.71 in 0.5 mi South 5.8 mph - N/A Fog Fog
3:01 AM 48.2 °F - 48.2 °F 100% 29.71 in 0.5 mi South 5.8 mph - N/A Fog Fog
3:02 AM 48.2 °F - 48.2 °F 100% 29.71 in 0.5 mi South 5.8 mph - N/A Fog Fog
3:03 AM 48.2 °F - 48.2 °F 100% 29.71 in 0.5 mi South 5.8 mph - N/A Fog Fog
3:04 AM 48.2 °F - 48.2 °F 100% 29.71 in 0.2 mi South 5.8 mph - N/A Fog Fog
3:05 AM 48.2 °F - 48.2 °F 100% 29.71 in 0.2 mi South 5.8 mph - N/A Fog Fog
3:07 AM 48.2 °F - 48.2 °F 100% 29.71 in 0.2 mi South 4.6 mph - N/A Fog Fog
3:16 AM 48.2 °F - 46.4 °F 93% 29.71 in 0.2 mi South 5.8 mph - N/A Fog Fog
3:18 AM 48.2 °F - 46.4 °F 93% 29.71 in 0.2 mi SSW 5.8 mph - N/A Fog Fog
3:19 AM 48.2 °F - 48.2 °F 100% 29.71 in 0.5 mi SSW 5.8 mph - N/A Fog Fog
3:20 AM 48.2 °F - 46.4 °F 93% 29.71 in 0.5 mi SSW 4.6 mph - N/A Fog Fog
3:33 AM 48.2 °F - 48.2 °F 100% 29.71 in 0.5 mi WSW 1.2 mph - N/A Fog Fog
3:41 AM 48.2 °F - 48.2 °F 100% 29.71 in 0.5 mi Calm Calm - N/A Fog Fog
3:42 AM 48.2 °F - 48.2 °F 100% 29.71 in 0.2 mi NW 1.2 mph - N/A Fog Fog
3:43 AM 48.2 °F - 48.2 °F 100% 29.71 in 0.2 mi Calm Calm - N/A Fog Fog
3:44 AM 48.2 °F - 48.2 °F 100% 29.71 in 0.2 mi Calm Calm - N/A Fog Fog
3:46 AM 48.2 °F - 48.2 °F 100% 29.71 in 0.2 mi West 1.2 mph - N/A Fog Fog
3:48 AM 48.2 °F - 48.2 °F 100% 29.71 in 0.2 mi WSW 2.3 mph - N/A Fog Fog
3:50 AM 48.2 °F - 48.2 °F 100% 29.71 in 0.2 mi WSW 2.3 mph - N/A Fog Fog
3:54 AM 48.2 °F - 48.2 °F 100% 29.71 in 0.2 mi West 2.3 mph - N/A Fog Fog
3:58 AM 48.6 °F - 48.2 °F 99% 29.74 in 0.2 mi West 2.3 mph - N/A Fog Fog
4:12 AM 46.4 °F 42.9 °F 46.4 °F 100% 29.72 in 0.2 mi SW 6.9 mph - N/A Fog Fog
4:13 AM 46.4 °F 42.4 °F 46.4 °F 100% 29.72 in 0.2 mi SW 8.1 mph - N/A Fog Fog
4:14 AM 46.4 °F 42.4 °F 46.4 °F 100% 29.72 in 0.5 mi SW 8.1 mph - N/A Fog Fog
4:17 AM 46.4 °F 41.9 °F 46.4 °F 100% 29.72 in 0.8 mi WSW 9.2 mph - N/A   Clear
4:18 AM 48.2 °F - 46.4 °F 93% 29.72 in 0.8 mi SW 9.2 mph - N/A   Clear
4:19 AM 48.2 °F - 48.2 °F 100% 29.72 in 1.0 mi SW 9.2 mph - N/A   Clear
4:20 AM 48.2 °F - 48.2 °F 100% 29.72 in 1.5 mi SW 9.2 mph - N/A   Clear
4:21 AM 48.2 °F - 48.2 °F 100% 29.72 in 2.0 mi SW 9.2 mph - N/A   Clear
4:22 AM 48.2 °F - 48.2 °F 100% 29.72 in 4.0 mi SW 8.1 mph - N/A   Clear
4:58 AM 49.6 °F - 49.3 °F 99% 29.75 in 10.0 mi West 9.2 mph - N/A   Clear
5:58 AM 47.3 °F - 43.5 °F 87% 29.78 in 10.0 mi NW 9.2 mph - N/A   Clear
6:58 AM 47.3 °F - 39.0 °F 73% 29.81 in 10.0 mi NW 9.2 mph - N/A   Clear
7:58 AM 46.8 °F - 38.8 °F 74% 29.85 in 10.0 mi WNW 11.5 mph - N/A   Clear
8:58 AM 50.2 °F - 37.9 °F 63% 29.87 in 10.0 mi West 12.7 mph - N/A   Clear
9:58 AM 53.4 °F - 37.4 °F 55% 29.88 in 10.0 mi WNW 16.1 mph - N/A   Clear
10:58 AM 55.8 °F - 35.2 °F 46% 29.89 in 10.0 mi NW 19.6 mph 25.3 mph N/A   Clear
11:58 AM 57.9 °F - 34.0 °F 41% 29.90 in 10.0 mi WNW 15.0 mph 21.9 mph N/A   Clear
12:58 PM 59.7 °F - 33.1 °F 37% 29.90 in 10.0 mi WNW 15.0 mph 21.9 mph N/A   Clear
1:58 PM 61.3 °F - 31.6 °F 33% 29.89 in 10.0 mi WNW 12.7 mph 20.7 mph N/A   Clear
2:58 PM 61.0 °F - 31.6 °F 33% 29.90 in 10.0 mi NW 8.1 mph 18.4 mph N/A   Mostly Cloudy
3:58 PM 61.5 °F - 30.9 °F 32% 29.91 in 10.0 mi WNW 16.1 mph - N/A   Partly Cloudy
4:58 PM 60.1 °F - 31.1 °F 33% 29.93 in 10.0 mi West 11.5 mph - N/A   Clear
5:58 PM 54.9 °F - 33.3 °F 44% 29.95 in 10.0 mi NW 6.9 mph - N/A   Partly Cloudy
6:58 PM 51.4 °F - 33.4 °F 50% 29.97 in 10.0 mi West 2.3 mph - N/A   Clear
7:58 PM 46.8 °F - 34.0 °F 61% 29.99 in 10.0 mi WNW 5.8 mph - N/A   Clear
8:58 PM 41.5 °F - 36.0 °F 81% 30.01 in 10.0 mi Calm Calm - N/A   Clear
9:58 PM 39.2 °F - 37.9 °F 95% 30.04 in 10.0 mi Calm Calm - N/A   Clear
10:58 PM 40.6 °F - 36.3 °F 85% 30.05 in 10.0 mi South 2.3 mph - N/A   Scattered Clouds
11:58 PM 37.2 °F - 36.7 °F 98% 30.05 in 10.0 mi Calm Calm - N/A   Mostly Cloudy